Temp
-9 -9 -9 -9 -9 -9 -9 -9 -9 -9 -9 -10 -10 -11 -11 -11 -11 -12 -12 -12 -12 -13 -13 -13 -13 -14 -14 -14 -14 -14 -14 -14 -14 -15 -15 -15 -15 -14 -15 -15 -15 -15 -15
-9 -9 -9 -9 -9 -9 -9 -9 -9 -10 -10 -10 -11 -11 -11 -11 -11 -12 -12 -12 -13 -13 -13 -14 -14 -14 -15 -15 -15 -15 -15 -15 -15 -15 -15 -15 -15 -15 -15 -15 -16 -16 -16
-10 -10 -9 -9 -9 -9 -9 -9 -10 -10 -11 -11 -11 -11 -11 -11 -12 -12 -12 -13 -13 -13 -14 -14 -14 -15 -15 -15 -15 -15 -15 -15 -16 -15 -15 -15 -15 -16 -16 -16 -16 -16 -16
-10 -10 -10 -9 -9 -9 -9 -10 -10 -11 -11 -11 -11 -11 -11 -11 -12 -12 -13 -13 -13 -13 -14 -14 -14 -15 -14 -15 -15 -15 -15 -16 -16 -15 -15 -15 -16 -16 -17 -17 -17 -17 -17
-10 -10 -9 -9 -10 -10 -10 -10 -11 -11 -11 -11 -11 -11 -11 -12 -12 -12 -13 -13 -13 -13 -14 -14 -14 -14 -14 -15 -15 -15 -16 -16 -15 -15 -15 -16 -16 -16 -17 -18 -17 -18 -18
-10 -10 -10 -10 -10 -10 -11 -11 -11 -11 -11 -11 -11 -11 -12 -12 -12 -13 -13 -13 -14 -14 -14 -14 -14 -15 -15 -15 -15 -16 -16 -16 -15 -16 -16 -16 -15 -16 -17 -18 -18 -19 -19
-10 -10 -10 -10 -11 -11 -11 -11 -11 -11 -11 -11 -11 -11 -12 -12 -13 -13 -13 -14 -14 -14 -14 -15 -15 -16 -16 -16 -17 -16 -16 -16 -16 -16 -16 -16 -16 -17 -18 -18 -19 -20 -20
-10 -11 -11 -11 -12 -12 -12 -11 -11 -11 -11 -11 -11 -12 -13 -12 -13 -13 -14 -14 -14 -14 -15 -15 -15 -16 -16 -16 -17 -16 -17 -16 -16 -16 -16 -16 -17 -17 -18 -19 -20 -20 -20
-11 -11 -11 -11 -12 -12 -12 -11 -11 -12 -11 -11 -11 -13 -12 -13 -14 -14 -14 -15 -14 -15 -15 -15 -15 -16 -16 -16 -17 -17 -17 -17 -17 -17 -17 -17 -18 -18 -18 -19 -20 -20 -20
-11 -12 -12 -12 -12 -12 -11 -12 -12 -12 -12 -12 -12 -12 -12 -13 -14 -14 -14 -15 -15 -15 -15 -15 -15 -16 -16 -16 -16 -16 -16 -16 -17 -17 -17 -17 -18 -18 -18 -18 -19 -19 -19
-12 -12 -13 -13 -12 -12 -12 -12 -12 -12 -12 -12 -12 -13 -13 -13 -14 -15 -15 -15 -15 -15 -16 -16 -16 -15 -15 -15 -15 -15 -16 -16 -17 -17 -17 -17 -17 -18 -18 -18 -18 -18 -18
-13 -13 -13 -13 -12 -12 -12 -12 -12 -12 -12 -12 -12 -13 -13 -13 -14 -15 -15 -15 -15 -15 -15 -15 -15 -15 -15 -15 -15 -16 -16 -16 -17 -17 -17 -17 -16 -17 -18 -18 -18 -18 -18
-13 -13 -13 -13 -13 -13 -12 -12 -12 -13 -13 -12 -12 -13 -13 -13 -14 -15 -15 -15 -15 -15 -15 -15 -15 -15 -15 -15 -15 -16 -16 -16 -16 -17 -16 -16 -17 -17 -18 -18 -18 -18 -18
-13 -13 -13 -13 -13 -13 -12 -13 -13 -13 -13 -12 -13 -13 -13 -13 -14 -14 -15 -15 -15 -15 -15 -15 -15 -15 -15 -15 -15 -15 -16 -16 -16 -16 -17 -16 -17 -17 -17 -18 -18 -18 -18
-13 -13 -13 -13 -13 -13 -13 -13 -13 -13 -13 -13 -13 -14 -14 -14 -14 -14 -14 -14 -14 -14 -14 -14 -15 -15 -15 -15 -15 -16 -16 -16 -16 -16 -17 -17 -16 -16 -17 -17 -17 -17 -18
-13 -13 -13 -13 -13 -13 -13 -13 -13 -13 -13 -13 -13 -13 -14 -14 -14 -14 -14 -14 -14 -14 -14 -15 -15 -15 -15 -15 -15 -16 -15 -16 -16 -16 -16 -16 -16 -16 -16 -17 -17 -17 -17
-14 -14 -13 -13 -13 -13 -13 -13 -13 -13 -13 -13 -13 -13 -13 -14 -14 -14 -14 -14 -14 -14 -14 -14 -15 -15 -15 -15 -15 -15 -15 -16 -16 -16 -16 -16 -16 -16 -17 -16 -17 -17 -17
-14 -14 -14 -14 -14 -14 -14 -13 -13 -13 -13 -13 -13 -13 -14 -14 -14 -14 -14 -14 -14 -14 -14 -15 -15 -15 -15 -15 -15 -15 -15 -15 -15 -16 -16 -16 -16 -16 -17 -17 -16 -16 -16
-15 -15 -14 -15 -15 -14 -14 -14 -13 -13 -13 -13 -13 -14 -14 -14 -14 -14 -14 -15 -14 -14 -14 -15 -15 -15 -15 -15 -15 -15 -15 -15 -15 -15 -15 -16 -16 -16 -16 -16 -16 -16 -16
-16 -16 -15 -15 -15 -14 -14 -14 -14 -14 -13 -13 -14 -14 -14 -14 -14 -14 -14 -14 -15 -15 -15 -15 -15 -15 -15 -16 -16 -15 -15 -15 -15 -15 -15 -15 -16 -16 -16 -16 -16 -16 -17
-16 -16 -16 -15 -15 -15 -14 -14 -14 -14 -14 -14 -14 -14 -14 -14 -14 -14 -14 -14 -14 -15 -15 -15 -15 -15 -15 -16 -16 -16 -16 -15 -15 -14 -14 -15 -15 -15 -16 -16 -16 -16 -16
-16 -16 -15 -15 -15 -15 -15 -15 -15 -15 -14 -14 -14 -14 -14 -14 -14 -14 -14 -15 -15 -15 -15 -15 -15 -15 -15 -15 -16 -16 -16 -16 -16 -15 -15 -15 -15 -15 -15 -15 -16 -16 -16
-16 -16 -16 -16 -15 -15 -15 -15 -15 -15 -15 -14 -15 -15 -15 -15 -15 -15 -15 -15 -15 -15 -15 -15 -15 -15 -16 -16 -16 -16 -16 -16 -16 -16 -16 -16 -16 -15 -15 -15 -16 -16 -16
-16 -16 -16 -16 -16 -16 -15 -15 -15 -15 -15 -15 -15 -15 -15 -15 -15 -15 -15 -15 -15 -15 -15 -15 -15 -15 -16 -16 -16 -17 -17 -17 -17 -17 -17 -17 -16 -16 -16 -15 -15 -16 -16
-16 -16 -16 -16 -16 -16 -16 -15 -15 -15 -15 -15 -15 -15 -15 -15 -16 -15 -16 -16 -16 -16 -16 -16 -16 -16 -16 -16 -16 -17 -17 -17 -17 -17 -17 -17 -17 -17 -16 -16 -16 -16 -16
-16 -16 -16 -16 -16 -16 -16 -16 -16 -16 -15 -15 -15 -15 -15 -15 -15 -15 -15 -16 -16 -16 -16 -16 -16 -16 -17 -17 -17 -17 -17 -18 -18 -18 -18 -17 -17 -17 -17 -17 -17 -16 -16
Height
5817 5818 5819 5820 5819 5818 5816 5815 5812 5808 5803 5798 5794 5789 5784 5779 5775 5771 5766 5760 5753 5747 5740 5733 5727 5721 5714 5707 5700 5694 5685 5679 5672 5663 5654 5645 5635 5626 5617 5607 5599 5592 5587
5812 5814 5815 5815 5815 5813 5811 5809 5804 5799 5796 5793 5789 5785 5781 5776 5771 5766 5760 5752 5747 5741 5735 5729 5723 5717 5710 5704 5696 5688 5680 5671 5663 5655 5643 5632 5620 5611 5601 5591 5582 5575 5570
5810 5810 5810 5809 5807 5806 5803 5800 5797 5795 5792 5790 5786 5782 5777 5771 5765 5760 5755 5748 5743 5738 5732 5726 5720 5713 5707 5700 5693 5685 5676 5666 5657 5647 5636 5623 5611 5598 5587 5576 5566 5557 5551
5804 5804 5804 5803 5802 5801 5799 5796 5795 5792 5789 5786 5782 5776 5771 5765 5760 5755 5750 5746 5741 5736 5729 5722 5716 5710 5705 5698 5689 5680 5672 5663 5653 5642 5629 5614 5600 5586 5573 5562 5551 5541 5535
5798 5799 5799 5798 5797 5794 5793 5792 5789 5786 5784 5781 5778 5773 5766 5761 5757 5753 5748 5744 5740 5733 5726 5720 5714 5708 5701 5693 5685 5677 5668 5658 5648 5635 5621 5606 5592 5577 5561 5546 5536 5528 5523
5793 5793 5793 5792 5790 5789 5788 5787 5786 5784 5782 5779 5774 5769 5764 5760 5756 5751 5747 5742 5737 5730 5724 5718 5711 5704 5696 5689 5680 5670 5661 5652 5641 5628 5614 5599 5584 5568 5551 5538 5528 5520 5516
5789 5789 5788 5788 5787 5787 5786 5785 5784 5783 5780 5777 5773 5768 5763 5758 5753 5748 5743 5738 5733 5728 5722 5716 5710 5702 5694 5685 5676 5667 5658 5647 5636 5623 5608 5593 5580 5565 5549 5534 5522 5515 5511
5784 5784 5784 5784 5784 5784 5785 5783 5783 5780 5778 5775 5771 5764 5759 5754 5750 5745 5740 5734 5730 5726 5720 5714 5707 5700 5692 5684 5674 5665 5656 5645 5633 5619 5605 5591 5577 5562 5546 5531 5519 5511 5509
5780 5780 5781 5781 5782 5783 5782 5781 5780 5777 5775 5770 5765 5760 5757 5752 5747 5742 5737 5733 5729 5723 5717 5711 5704 5697 5689 5681 5674 5664 5654 5642 5631 5618 5604 5592 5577 5563 5548 5533 5520 5512 5509
5777 5778 5778 5778 5779 5779 5779 5777 5776 5774 5771 5767 5762 5757 5753 5748 5744 5740 5735 5730 5725 5720 5714 5706 5699 5693 5686 5679 5672 5663 5652 5642 5631 5620 5608 5595 5582 5569 5555 5541 5528 5519 5513
5772 5772 5773 5774 5775 5775 5774 5773 5772 5770 5767 5762 5759 5754 5749 5745 5741 5737 5732 5727 5721 5715 5709 5703 5697 5691 5684 5677 5669 5660 5650 5641 5632 5622 5611 5599 5588 5576 5563 5551 5539 5529 5522
5767 5767 5768 5769 5770 5770 5769 5769 5767 5765 5762 5759 5755 5749 5746 5741 5737 5732 5728 5723 5718 5712 5707 5701 5695 5690 5683 5675 5668 5659 5651 5641 5634 5625 5615 5604 5593 5582 5571 5562 5551 5542 5534
5762 5762 5763 5762 5763 5764 5763 5763 5762 5761 5758 5754 5750 5745 5742 5738 5734 5729 5725 5721 5715 5711 5705 5699 5694 5688 5681 5674 5667 5660 5652 5644 5636 5627 5618 5609 5597 5586 5577 5569 5561 5553 5546
5758 5757 5757 5758 5758 5758 5758 5758 5757 5756 5753 5750 5746 5742 5739 5736 5731 5727 5722 5718 5713 5708 5703 5698 5691 5686 5680 5674 5666 5660 5653 5646 5638 5630 5621 5612 5603 5592 5583 5576 5568 5561 5555
5753 5753 5753 5753 5753 5753 5753 5752 5751 5751 5749 5746 5743 5740 5736 5733 5729 5725 5720 5715 5711 5706 5701 5696 5690 5684 5679 5673 5668 5662 5655 5647 5639 5632 5624 5616 5607 5598 5589 5581 5574 5568 5563
5747 5748 5748 5748 5748 5748 5748 5746 5747 5746 5744 5742 5739 5737 5733 5730 5726 5722 5718 5713 5709 5705 5700 5695 5690 5685 5680 5675 5669 5663 5656 5649 5641 5634 5627 5619 5611 5604 5596 5588 5581 5574 5568
5741 5742 5742 5742 5743 5742 5742 5742 5742 5741 5739 5737 5735 5733 5729 5726 5723 5719 5715 5711 5707 5702 5698 5693 5688 5684 5679 5675 5670 5663 5657 5651 5644 5637 5629 5622 5615 5608 5601 5594 5587 5581 5574
5733 5735 5736 5737 5737 5737 5736 5736 5736 5735 5734 5733 5731 5729 5726 5722 5719 5715 5712 5708 5705 5700 5695 5691 5686 5682 5677 5673 5668 5662 5656 5651 5644 5638 5631 5625 5619 5613 5606 5599 5593 5587 5580
5727 5727 5728 5730 5731 5732 5730 5730 5730 5729 5729 5727 5726 5724 5722 5718 5715 5711 5708 5705 5701 5697 5693 5689 5684 5680 5676 5671 5667 5662 5657 5651 5645 5640 5633 5626 5621 5615 5609 5603 5597 5591 5586
5719 5720 5722 5723 5726 5726 5725 5724 5724 5723 5723 5721 5720 5718 5716 5715 5711 5707 5704 5700 5697 5693 5689 5685 5681 5677 5673 5668 5664 5660 5655 5650 5645 5640 5634 5629 5622 5617 5612 5606 5601 5596 5591
5713 5715 5717 5718 5719 5719 5719 5718 5718 5718 5716 5714 5712 5711 5708 5707 5706 5702 5700 5697 5692 5688 5684 5680 5677 5673 5669 5665 5661 5657 5653 5647 5642 5638 5633 5628 5623 5618 5612 5607 5603 5598 5593
5709 5710 5711 5712 5713 5712 5712 5711 5711 5710 5708 5706 5705 5703 5700 5699 5697 5695 5693 5691 5687 5683 5679 5675 5671 5668 5664 5660 5656 5652 5648 5644 5640 5635 5630 5626 5622 5618 5613 5607 5602 5598 5594
5702 5703 5704 5705 5705 5705 5704 5704 5703 5701 5699 5698 5697 5696 5693 5691 5690 5688 5686 5683 5680 5677 5673 5670 5666 5662 5658 5655 5651 5648 5644 5640 5636 5633 5628 5624 5620 5616 5612 5607 5603 5598 5593
5695 5696 5697 5697 5697 5697 5696 5696 5694 5693 5692 5691 5689 5687 5685 5684 5683 5681 5678 5675 5672 5669 5665 5662 5659 5656 5652 5648 5645 5642 5639 5636 5632 5628 5625 5621 5616 5612 5608 5604 5600 5597 5592
5688 5688 5688 5688 5689 5688 5687 5687 5685 5685 5685 5683 5681 5679 5677 5675 5674 5672 5669 5666 5663 5660 5657 5653 5650 5646 5643 5640 5637 5634 5631 5628 5625 5621 5618 5615 5611 5607 5604 5600 5596 5592 5589
5677 5678 5678 5679 5680 5679 5678 5678 5677 5676 5675 5673 5671 5669 5667 5665 5663 5660 5657 5654 5651 5648 5645 5642 5639 5635 5633 5630 5627 5625 5622 5619 5616 5613 5610 5607 5604 5601 5597 5593 5590 5587 5584
Wind_Speed
23 20 21 22 23 24 27 30 34 38 37 34 31 31 31 32 33 37 41 37 36 37 36 37 40 44 44 42 41 43 47 47 46 45 45 48 54 53 58 60 60 53 49
23 22 19 20 22 25 28 31 33 31 32 29 26 28 30 32 36 33 37 38 33 35 36 39 41 37 34 36 40 39 43 44 44 48 51 55 57 57 62 58 55 53 48
20 17 19 21 24 27 29 29 29 28 24 24 27 27 32 36 31 34 39 31 31 33 40 38 34 35 35 35 39 41 44 44 46 50 54 56 60 57 53 55 53 51 48
16 18 20 22 24 26 27 24 22 20 24 27 29 32 35 38 33 38 31 31 32 36 35 34 33 31 32 37 42 45 47 47 50 54 55 59 54 53 53 54 44 38 36
20 21 22 23 22 23 20 15 19 24 26 27 30 33 37 36 34 35 31 29 31 30 31 31 31 35 38 43 44 45 48 49 51 52 56 56 55 62 61 50 40 36 32
23 23 22 19 19 16 16 17 21 25 28 29 32 37 33 27 31 28 27 27 23 28 29 31 34 38 42 43 44 48 49 48 51 54 57 56 61 65 55 48 37 30 25
22 21 19 16 13 16 16 19 23 23 26 27 33 33 25 28 27 24 27 29 23 27 30 33 35 39 43 44 46 47 45 48 51 55 58 57 60 60 52 50 40 29 19
19 18 17 14 13 15 20 23 23 22 24 28 34 26 24 28 24 25 29 29 23 29 31 32 36 40 43 43 42 44 44 46 51 56 59 57 57 59 52 47 40 27 17
17 16 16 15 16 17 20 21 21 22 25 29 33 24 25 26 24 25 23 25 26 30 31 35 38 39 42 41 39 43 43 46 50 55 56 55 55 59 51 46 39 29 18
15 17 17 19 22 24 23 22 20 22 24 28 29 25 24 25 24 24 26 29 30 31 33 36 38 38 39 37 38 40 41 43 47 52 55 51 52 55 51 46 40 32 23
18 20 20 23 27 28 25 22 21 22 24 26 28 23 24 23 23 25 30 31 31 31 32 35 35 35 34 35 39 41 43 43 44 48 52 46 47 50 49 46 42 37 30
21 24 26 27 27 24 22 23 22 22 23 26 27 22 23 22 22 24 28 30 30 30 31 34 34 32 32 36 38 41 43 42 40 43 47 45 44 48 43 40 44 41 35
22 21 25 28 28 23 21 24 21 22 22 25 26 21 21 19 22 24 26 28 28 28 29 30 29 29 32 35 37 40 42 42 38 39 43 47 44 43 45 40 37 35 33
21 22 21 21 20 21 23 23 21 22 22 23 23 20 19 19 20 23 23 25 25 25 25 27 28 29 33 36 38 38 39 40 38 36 38 41 45 42 41 42 36 35 30
23 16 16 19 20 23 24 21 20 20 21 20 22 21 19 18 19 21 22 22 25 23 24 27 27 29 33 35 34 34 36 38 39 37 35 37 40 45 44 39 39 33 31
24 23 21 22 22 23 21 21 21 18 20 20 21 22 20 19 19 20 23 23 21 23 23 25 25 25 28 30 32 32 34 34 36 37 37 36 36 38 42 43 38 35 30
24 25 25 25 24 23 22 23 21 17 19 20 18 20 20 20 22 20 21 24 23 21 21 23 25 25 26 28 29 31 34 34 33 34 36 36 37 36 36 38 40 35 34
27 27 28 26 24 24 23 23 21 19 19 20 18 20 22 22 23 23 22 23 24 23 21 23 24 24 25 26 28 29 32 34 35 35 33 33 34 34 35 33 33 36 36
27 29 28 23 22 22 20 21 20 20 20 21 21 22 23 24 24 25 24 23 24 24 25 24 24 25 25 24 25 25 27 29 32 33 33 34 32 33 34 33 32 31 32
25 22 21 20 21 21 18 18 18 20 23 23 23 23 23 25 26 26 25 23 24 24 25 25 26 27 27 26 25 27 26 25 28 31 33 33 32 31 29 30 31 30 28
18 16 16 22 27 26 24 22 21 22 21 21 22 24 24 25 28 29 28 28 29 28 26 26 27 27 28 29 29 28 27 27 26 27 30 32 32 31 30 29 27 27 28
21 23 25 26 24 24 24 24 25 27 26 26 27 27 27 26 29 31 31 31 31 31 30 27 28 29 29 29 31 31 31 30 29 27 27 29 30 30 29 29 27 27 25
27 28 28 29 27 27 26 26 28 28 29 29 28 28 27 28 31 33 33 34 35 35 34 33 32 32 32 32 31 31 32 33 32 30 29 28 28 28 28 27 27 26 26
27 28 28 27 27 27 27 28 28 27 27 28 29 29 30 31 34 35 34 34 36 37 37 36 37 37 35 34 33 33 32 33 34 34 32 31 30 28 27 27 27 27 25
27 29 29 28 28 29 31 30 29 30 31 32 34 36 36 36 37 39 39 40 40 39 40 40 41 40 40 39 38 37 36 35 34 35 36 35 33 32 30 29 28 27 28
38 34 33 32 31 32 33 32 32 34 36 38 38 37 38 40 42 45 46 46 46 46 45 45 44 44 43 42 40 39 38 38 38 37 37 38 37 35 34 33 33 32 29
Wind_Direction
253 266 276 280 283 289 293 298 304 307 307 311 314 312 318 318 316 311 312 317 322 322 326 325 325 324 324 323 320 319 320 321 322 322 321 318 316 314 316 313 312 309 296
258 269 275 280 286 291 300 310 310 306 311 312 313 319 320 319 315 319 325 325 323 325 330 326 326 329 330 330 329 331 331 329 328 328 328 327 322 317 317 313 311 305 300
255 270 279 285 293 303 313 315 309 312 318 316 318 317 320 320 322 327 326 326 326 325 324 325 328 334 334 336 335 332 335 337 336 335 335 332 328 320 315 311 308 302 297
277 276 279 286 297 308 315 308 311 322 319 319 320 317 321 326 322 325 323 326 323 326 332 332 334 335 334 332 334 335 334 332 333 332 334 333 331 326 322 319 314 309 304
273 276 284 293 305 315 309 319 326 320 319 322 322 325 326 326 327 321 320 320 321 332 340 345 342 337 334 333 332 329 333 333 333 338 340 338 339 336 336 330 325 321 317
272 279 286 298 311 306 304 317 317 317 317 317 322 322 323 322 321 316 319 318 327 339 340 340 339 338 337 335 335 336 338 336 342 343 343 345 343 340 341 341 335 329 322
272 279 288 296 299 293 297 303 309 312 316 319 319 321 321 325 319 312 317 323 323 338 339 339 335 337 339 342 343 342 340 342 347 350 350 349 346 347 345 342 340 336 325
267 273 279 281 280 284 293 296 298 304 311 323 328 327 329 330 318 319 324 323 317 327 331 336 336 333 337 344 344 347 348 350 352 353 354 352 352 355 352 348 347 348 337
264 268 268 270 265 272 291 300 290 299 311 322 337 329 331 331 322 324 334 336 328 330 330 331 333 334 340 342 343 343 349 353 356 358 358 357 359 2 2 2 2 5 7
253 259 261 262 257 260 287 293 287 302 320 330 335 326 332 333 326 326 326 331 332 333 333 334 335 337 341 345 346 351 354 357 0 2 2 1 6 7 10 13 17 22 23
259 258 259 258 257 264 279 289 281 298 314 328 331 327 331 333 328 324 327 327 332 336 337 337 339 342 347 353 357 358 359 1 3 4 5 5 9 11 15 23 28 33 39
264 263 260 257 258 265 276 281 277 298 310 321 325 329 330 333 331 328 329 330 335 338 339 339 340 344 355 359 359 1 2 2 4 5 9 9 9 16 18 22 27 33 40
269 279 268 262 260 268 272 276 279 295 307 317 321 324 328 339 333 331 332 332 335 336 336 339 343 352 358 359 359 359 359 2 4 6 10 13 13 16 21 17 16 28 38
279 272 248 262 265 264 272 272 278 297 304 314 323 321 324 334 335 332 334 339 339 337 340 344 350 351 356 359 0 359 357 360 6 9 9 13 18 17 20 19 22 27 29
268 257 252 251 261 268 272 268 280 294 296 310 322 320 316 325 329 334 336 342 345 342 344 349 353 352 355 356 356 356 359 359 3 12 10 14 17 21 23 23 23 22 26
255 250 252 258 268 271 276 273 280 288 292 305 319 323 317 316 321 333 334 334 341 341 344 348 347 348 350 352 353 357 0 2 2 5 12 14 16 18 23 24 23 24 21
253 248 252 258 267 274 275 272 277 282 290 299 314 323 326 316 313 322 329 332 332 335 340 342 341 340 344 347 351 356 357 360 3 4 8 11 15 17 20 23 23 24 24
253 246 252 256 268 274 273 270 271 278 286 291 300 311 319 323 316 316 318 323 326 328 331 337 339 339 340 343 346 354 354 354 358 0 3 7 8 12 16 19 21 23 24
248 256 256 254 266 273 276 275 274 277 282 283 287 297 309 318 319 318 317 317 319 323 325 328 333 335 336 338 339 346 352 352 353 355 357 1 5 7 8 12 16 19 21
238 238 244 255 262 266 270 276 283 283 282 284 283 288 293 302 308 313 316 320 317 315 318 321 324 327 330 332 333 336 340 345 347 350 354 355 356 359 2 4 8 12 15
241 243 254 259 262 265 267 273 279 284 285 282 282 283 287 291 294 300 305 314 318 318 314 314 317 320 323 326 328 328 331 334 338 339 344 349 351 351 352 356 0 1 4
244 249 253 258 263 267 272 276 279 275 278 282 284 285 287 292 290 290 296 301 306 312 315 313 314 315 316 318 321 325 326 328 330 334 337 339 340 343 346 349 351 353 355
252 253 255 259 263 268 274 277 282 282 280 279 282 286 290 291 291 294 298 299 302 304 306 306 309 311 311 312 314 316 319 322 324 326 327 328 329 331 336 338 340 343 345
256 257 258 262 267 271 273 277 281 282 281 282 285 287 288 291 293 295 297 297 298 301 301 301 301 303 306 306 307 309 310 313 317 319 320 321 320 321 323 325 328 330 334
263 267 264 265 269 274 274 274 275 276 278 281 283 284 285 288 291 293 294 294 295 296 296 296 296 296 296 297 299 302 305 308 310 313 315 316 317 316 317 316 316 318 320
274 263 265 268 272 274 272 270 275 281 285 287 288 288 289 291 293 293 294 294 295 294 293 292 291 291 292 293 294 296 299 302 305 309 312 311 311 312 311 313 312 309 307